Location: Houston
(29.7630°N, 95.3630°W)
Time: 22:42:17
(UTC-05:00)

Daily predictions for brighter satellites

Satellite Brightness Start Highest point End
(mag) Time Altitude Azimuth Time Altitude Azimuth Time Altitude Azimuth
Cosmos 1844 3.6 19:33:15 10° NNW 19:38:50 73° ENE 19:44:22 10° SSE
SEDSat Delta rocket 4.1 19:34:33 10° WSW 19:41:14 75° SSE 19:48:01 10° E
MSX 4.0 19:35:42 10° SSE 19:41:26 83° WSW 19:47:12 10° NNW
Cosmos 405 Rocket 4.4 19:37:52 10° NNW 19:41:26 39° W 19:45:03 10° SSW
Cosmos 1812 Rocket 3.9 19:37:15 10° SSW 19:41:32 69° W 19:45:52 10° N
Cosmos 1766 4.0 19:39:51 10° SSE 19:43:23 32° E 19:46:56 10° NNE
GPS 2-04 Rocket1 4.3 19:44:16 10° S 19:46:32 16° SE 19:48:47 10° ESE
SeaSat 1 3.6 19:46:10 10° ENE 19:49:53 21° ESE 19:53:36 10° SSE
ASTRO E2 2.7 19:46:30 10° WSW 19:50:32 85° SSE 19:54:17 12° E
Cosmos 2237 Rocket 3.3 19:45:12 10° SW 19:50:42 50° WNW 19:56:13 10° N
Cosmos 1844 Rocket 3.3 19:45:22 10° NNW 19:50:52 61° WSW 19:56:23 10° S
NOSS 3-2 (A) 3.4 19:45:47 10° SSW 19:51:41 69° ESE 19:57:58 10° NE
SWIFT 4.0 19:51:12 10° SW 19:54:32 23° S 19:57:52 10° SE
Cosmos 1953 3.6 19:52:26 10° SE 19:55:20 19° E 19:58:13 10° NE
Cosmos 2233 Rocket 4.4 19:49:12 10° SSW 19:55:26 71° W 20:01:45 10° N
NOAA 12 4.0 19:58:59 10° SSE 20:04:10 69° ENE 20:09:24 10° N
Cosmos 921 Rocket 3.4 20:00:19 10° NNW 20:04:28 64° WSW 20:08:34 10° S
ATLAS 5 CENTAUR R/B 1.9 20:02:12 10° S 20:06:41 48° ESE 20:11:24 10° NE
SL-16 R/B 2.2 20:02:48 10° SSW 20:08:29 88° WNW 20:14:12 10° NNE
Spot 2 Rocket 3.6 20:08:20 10° SSE 20:13:14 53° ENE 20:18:08 10° N
Cosmos-2242 3.6 20:12:28 10° SSE 20:16:22 34° E 20:20:19 10° NNE
Abrixas rocket 2.3 20:13:40 10° NW 20:17:00 77° SW 20:18:56 23° SE
Cosmos 1805 3.7 20:14:46 10° SSE 20:18:25 38° E 20:22:04 10° NNE
ASC 2 Rocket 3.7 20:14:53 10° WSW 20:18:45 37° S 20:20:42 23° SE
Spot 1 4.2 20:14:14 10° SSE 20:19:10 75° ENE 20:23:50 10° N
Resurs 01 Rocket 1.6 20:15:29 10° SSE 20:19:52 61° ENE 20:24:15 10° N
Cosmos 2056 Rocket 3.6 20:14:35 10° N 20:19:57 59° ENE 20:25:16 10° SSE
Cosmos 1076 Rocket 3.9 20:15:56 10° N 20:20:01 40° E 20:23:19 15° SSE
Cosmos 1437 2.9 20:18:08 10° N 20:21:24 76° W 20:24:39 10° S
H-2A R/B 4.2 20:23:12 21° ENE 20:23:12 21° ENE 20:25:31 10° NNE
FREGAT/IRIS 3.4 20:23:06 10° S 20:26:08 54° W 20:29:10 10° NNW
Resurs 1-3 3.7 20:21:59 10° SSE 20:26:14 54° ENE 20:30:31 10° N
Aureole 2 Rocket 3.9 20:22:55 10° SSW 20:27:09 51° WNW 20:31:25 10° N
NOSS 3-2 (C) 3.5 20:22:02 10° SSW 20:27:58 79° WNW 20:34:23 10° NNE
ALOS 2.7 20:26:20 25° ESE 20:28:23 38° ENE 20:32:42 10° N
SJ-6B 3.9 20:25:01 10° S 20:28:44 45° W 20:32:34 10° NNW
Cosmos 1408 Rocket 3.8 20:24:44 10° N 20:28:54 45° E 20:30:57 26° SE
Cosmos 1371 Rocket 4.1 20:24:02 10° NNW 20:29:20 79° WSW 20:34:40 10° S
Okean 3 Rocket 4.1 20:26:46 10° NNW 20:31:15 63° W 20:35:43 10° S
Delta 168 4.4 20:28:01 10° WSW 20:33:13 48° SSE 20:36:49 28° ESE
Helios 1B rocket 3.2 20:29:22 10° N 20:33:22 54° WNW 20:37:22 10° SSW
CENTAUR R/B 3.7 20:30:25 10° SSE 20:32:48 20° SE 20:32:48 20° SE
Cosmos 1758 3.2 20:31:09 10° S 20:35:10 71° E 20:39:15 10° N
Cosmos 2278 Rocket 3.1 20:35:13 10° NNW 20:40:38 49° WSW 20:46:02 10° S
Meteor 1-24 Rocket 4.1 20:35:51 10° NNW 20:41:22 62° W 20:46:41 10° S
ASTEX 1 3.5 20:37:14 10° NNE 20:41:59 50° E 20:45:33 17° SSE
Cosmos 2297 3.6 20:37:36 10° NNW 20:43:16 77° ENE 20:46:50 23° SSE
METEOR-M 4.5 20:38:11 10° S 20:43:30 66° W 20:48:49 10° NNW
Cosmos 1378 3.7 20:40:44 10° NNW 20:44:24 57° W 20:48:02 10° S
Intelsat 5-2 Rocket 3.8 20:39:11 10° WSW 20:45:11 35° S 20:45:44 33° SSE
FENGYUN 3A 3.6 20:44:36 27° SSE 20:47:31 63° ENE 20:52:50 10° N
Cosmos 1624 Rocket 4.3 20:42:26 10° NNW 20:47:35 65° WSW 20:52:41 10° S
Myojo/LAPS 4.0 20:51:41 10° W 20:53:37 35° SSW 20:53:37 35° SSW
Cosmos 1603 3.6 20:49:41 10° SSW 20:55:23 83° ESE 21:01:09 10° NNE
OAO 3 Rocket 3.8 20:50:44 10° W 20:55:23 48° N 20:56:35 39° NE
Nadezhda 4 Rocket 4.0 20:50:52 10° N 20:57:00 55° E 20:58:29 45° SE
FengYun 1-2 T 4.4 20:53:13 10° S 20:58:44 72° WSW 21:04:14 10° NNW
ATLAS CENTAUR R/B 1.5 20:55:08 10° NW 20:59:08 60° WSW 20:59:27 57° SW
GPS 2-05 Rocket1 4.1 20:56:15 10° W 20:58:59 34° SW 20:58:59 34° SW
Cosmos 1092 Rocket 4.5 20:55:10 10° N 21:00:03 38° ENE 21:00:03 38° ENE
Meteosat 1 Rocket2 4.4 21:05:07 10° SW 21:09:09 32° SSW 21:09:09 32° SSW
Atlas Centaur 2 2.8 21:04:14 10° W 21:12:39 75° SSW 21:14:29 54° SE
Cosmos 1452 Rocket 3.4 21:11:33 10° NNW 21:16:25 76° N 21:16:25 76° N
Meteor 1-21 Rocket 4.1 21:12:18 10° N 21:17:52 83° W 21:18:42 65° S
SL-8 R/B 4.4 21:22:36 10° WSW 21:26:24 50° W 21:26:24 50° W
SeaSat 1 3.9 21:22:54 10° N 21:27:24 36° WNW 21:31:52 10° SW
SEDSat Delta rocket 3.9 21:21:17 10° W 21:28:07 77° N 21:28:30 75° NNE
BREEZE-M DEB (TANK) 3.8 21:33:34 10° NW 21:46:06 60° WSW 21:46:06 60° WSW
